Location: Saint-Restitut
(44.3351°N, 4.7915°E)
Time: 22:09:59
(UTC+00:00)

CSL-04 Debris - Visible Passes

Search period start: 21 February 2024 00:00
Search period end: 02 March 2024 00:00
Orbit: 823 x 845 km, 98.8° (Epoch: 20 February)

Date Brightness Start Highest point End Pass type
(mag) Time Alt. Az. Time Alt. Az. Time Alt. Az.
21 Feb 4.0 19:18:56 37° SE 19:21:04 70° ENE 19:26:26 10° N visible
21 Feb 6.6 21:00:35 15° WSW 21:01:56 16° W 21:05:16 10° NW visible
22 Feb 4.3 19:01:52 28° SE 19:04:26 51° ENE 19:09:38 10° N visible
22 Feb 6.2 20:43:31 20° WSW 20:45:03 23° W 20:49:16 10° NW visible
23 Feb 4.7 18:44:49 20° ESE 18:47:50 37° ENE 18:52:45 10° N visible
23 Feb 5.7 20:26:27 26° SW 20:28:13 32° W 20:33:00 10° NNW visible
24 Feb 5.0 18:27:46 14° ESE 18:31:17 27° ENE 18:35:45 10° N visible
24 Feb 5.1 20:09:24 31° SSW 20:11:25 44° W 20:16:34 10° NNW visible
25 Feb 5.4 18:10:54 10° ESE 18:14:46 21° ENE 18:18:38 10° NNE visible
25 Feb 4.5 19:52:20 33° S 19:54:40 62° WSW 20:00:00 10° NNW visible
26 Feb 5.7 17:55:17 10° E 17:58:18 15° ENE 18:01:19 10° NNE visible
26 Feb 4.1 19:35:17 31° SSE 19:37:56 85° WSW 19:43:21 10° NNW visible
26 Feb 6.9 21:17:28 10° WSW 21:19:04 11° W 21:20:41 10° WNW visible
27 Feb 4.0 19:18:13 26° SSE 19:21:16 70° ENE 19:26:37 10° N visible
27 Feb 6.6 20:59:52 13° WSW 21:02:08 16° W 21:05:27 10° NW visible
28 Feb 4.3 19:01:10 21° SE 19:04:37 51° ENE 19:09:48 10° N visible
28 Feb 6.2 20:42:49 17° SW 20:45:14 23° W 20:49:27 10° NW visible
29 Feb 4.7 18:44:07 15° SE 18:48:01 37° ENE 18:52:55 10° N visible
29 Feb 5.7 20:25:46 21° SW 20:28:23 32° W 20:33:10 10° NNW visible
01 Mar 5.1 18:27:05 10° ESE 18:31:27 27° ENE 18:35:55 10° N visible
01 Mar 5.1 20:08:43 24° SSW 20:11:35 44° W 20:16:43 10° NNW visible
